AAL626 KSAN-KPHX

Flight info

Callsign AAL626
Flight time N/A
Altitude 27000
Route ZZOOO4 HOGGZ HYDRR1
Aircraft A320/M-SDE3FGHIRWY/LB1

Departure

Time 2026-04-22 13:51
Airport San Diego International Airport (KSAN)

Arrival

Time N/A
Airport Phoenix Sky Harbor International Airport (KPHX)
Time Latitude Longitude Altitude Speed Heading
2026-04-22 13:01 32.73400 -117.20180 21 ft 0 kts 176°
2026-04-22 13:07 32.73414 -117.20181 21 ft 0 kts 176°
2026-04-22 13:08 32.73401 -117.20180 21 ft 0 kts 176°
2026-04-22 13:08 32.73402 -117.20180 21 ft 0 kts 176°
2026-04-22 13:09 32.73405 -117.20180 21 ft 0 kts 176°
2026-04-22 13:41 32.73411 -117.20181 21 ft 4 kts 176°
2026-04-22 13:41 32.73434 -117.20182 21 ft 2 kts 176°
2026-04-22 13:41 32.73456 -117.20190 21 ft 4 kts 115°
2026-04-22 13:41 32.73462 -117.20221 23 ft 4 kts 101°
2026-04-22 13:42 32.73462 -117.20248 22 ft 4 kts 45°
2026-04-22 13:42 32.73441 -117.20261 21 ft 4 kts 16°
2026-04-22 13:42 32.73419 -117.20269 21 ft 1 kts 16°
2026-04-22 13:44 32.73420 -117.20268 21 ft 1 kts 16°
2026-04-22 13:45 32.73449 -117.20259 21 ft 9 kts 16°
2026-04-22 13:45 32.73514 -117.20237 23 ft 10 kts 15°
2026-04-22 13:45 32.73547 -117.20170 23 ft 12 kts 100°
2026-04-22 13:45 32.73520 -117.20064 22 ft 15 kts 107°
2026-04-22 13:46 32.73489 -117.19933 23 ft 17 kts 105°
2026-04-22 13:46 32.73456 -117.19792 26 ft 19 kts 106°
2026-04-22 13:46 32.73417 -117.19631 25 ft 21 kts 107°
2026-04-22 13:46 32.73375 -117.19460 23 ft 22 kts 107°
2026-04-22 13:47 32.73334 -117.19295 20 ft 19 kts 105°
2026-04-22 13:47 32.73295 -117.19133 21 ft 20 kts 106°
2026-04-22 13:47 32.73257 -117.18973 24 ft 21 kts 106°
2026-04-22 13:47 32.73214 -117.18797 25 ft 22 kts 106°
2026-04-22 13:48 32.73170 -117.18623 25 ft 24 kts 105°
2026-04-22 13:48 32.73127 -117.18441 22 ft 21 kts 107°
2026-04-22 13:48 32.73085 -117.18266 22 ft 23 kts 105°
2026-04-22 13:48 32.73041 -117.18088 19 ft 21 kts 107°
2026-04-22 13:49 32.73000 -117.17922 19 ft 19 kts 105°
2026-04-22 13:49 32.72969 -117.17789 17 ft 12 kts 105°
2026-04-22 13:49 32.72950 -117.17692 17 ft 11 kts 92°
2026-04-22 13:49 32.72969 -117.17604 20 ft 11 kts 69°
2026-04-22 13:50 32.73025 -117.17597 20 ft 9 kts 296°
2026-04-22 13:50 32.73030 -117.17616 19 ft 0 kts 287°
2026-04-22 13:50 32.73067 -117.17764 18 ft 56 kts 286°
2026-04-22 13:51 32.73239 -117.18482 21 ft 121 kts 286°
2026-04-22 13:51 32.73518 -117.19619 209 ft 152 kts 287°
2026-04-22 13:51 32.73808 -117.20796 825 ft 149 kts 287°
2026-04-22 13:51 32.74092 -117.21982 1412 ft 150 kts 287°
2026-04-22 13:52 32.74377 -117.23174 1955 ft 155 kts 287°
2026-04-22 13:52 32.74695 -117.24493 2276 ft 178 kts 288°
2026-04-22 13:52 32.75059 -117.25997 2613 ft 201 kts 288°
2026-04-22 13:52 32.75470 -117.27685 2954 ft 225 kts 287°
2026-04-22 13:53 32.75916 -117.29527 3694 ft 235 kts 287°
2026-04-22 13:53 32.76368 -117.31407 4650 ft 238 kts 286°
2026-04-22 13:53 32.76468 -117.33370 5559 ft 245 kts 256°
2026-04-22 13:53 32.75551 -117.35068 6459 ft 252 kts 219°
2026-04-22 13:54 32.73915 -117.35806 7362 ft 260 kts 183°
2026-04-22 13:54 32.72154 -117.35273 8242 ft 270 kts 150°
2026-04-22 13:54 32.70714 -117.33869 9119 ft 275 kts 135°
2026-04-22 13:54 32.69418 -117.32167 9976 ft 280 kts 133°
2026-04-22 13:55 32.68127 -117.30411 10765 ft 285 kts 135°
2026-04-22 13:55 32.66767 -117.28671 11535 ft 290 kts 138°
2026-04-22 13:55 32.65326 -117.26968 12285 ft 294 kts 140°
2026-04-22 13:55 32.63986 -117.25090 13002 ft 305 kts 125°
2026-04-22 13:56 32.63081 -117.22762 13565 ft 322 kts 108°
2026-04-22 13:56 32.62698 -117.20045 13802 ft 347 kts 97°
2026-04-22 13:56 32.62434 -117.17155 14006 ft 368 kts 97°
2026-04-22 13:56 32.62164 -117.14080 14514 ft 379 kts 96°
2026-04-22 13:57 32.62182 -117.10937 15153 ft 385 kts 83°
2026-04-22 13:57 32.62746 -117.07813 15801 ft 389 kts 71°
2026-04-22 13:57 32.63713 -117.04800 16450 ft 393 kts 67°
2026-04-22 13:57 32.64714 -117.01760 17102 ft 397 kts 67°
2026-04-22 13:58 32.65716 -116.98684 17724 ft 402 kts 69°
2026-04-22 13:58 32.66462 -116.95464 18330 ft 407 kts 80°
2026-04-22 13:58 32.66733 -116.92156 18925 ft 410 kts 90°
2026-04-22 13:58 32.66796 -116.88752 19540 ft 415 kts 89°
2026-04-22 13:59 32.66868 -116.85312 20141 ft 419 kts 89°
2026-04-22 13:59 32.66948 -116.81836 20758 ft 423 kts 89°
2026-04-22 13:59 32.67034 -116.78330 21358 ft 427 kts 89°
2026-04-22 13:59 32.67119 -116.74797 21913 ft 431 kts 89°
2026-04-22 14:00 32.67146 -116.71220 22441 ft 435 kts 91°
2026-04-22 14:00 32.67107 -116.67613 22952 ft 439 kts 92°
2026-04-22 14:00 32.67025 -116.63974 23481 ft 443 kts 93°
2026-04-22 14:00 32.66927 -116.60358 23997 ft 446 kts 93°
2026-04-22 14:01 32.66832 -116.56666 24515 ft 449 kts 93°
2026-04-22 14:01 32.66748 -116.52937 24994 ft 453 kts 92°
2026-04-22 14:01 32.66678 -116.49181 25455 ft 457 kts 92°
2026-04-22 14:01 32.66614 -116.45390 25887 ft 462 kts 92°
2026-04-22 14:02 32.66658 -116.41566 26315 ft 466 kts 85°
2026-04-22 14:02 32.67005 -116.37727 26748 ft 470 kts 84°
2026-04-22 14:02 32.67365 -116.33859 27076 ft 472 kts 84°
2026-04-22 14:02 32.67719 -116.30004 27148 ft 464 kts 84°
2026-04-22 14:03 32.68055 -116.26309 27122 ft 449 kts 84°
2026-04-22 14:03 32.68386 -116.22650 27117 ft 444 kts 84°
2026-04-22 14:03 32.68713 -116.19018 27119 ft 442 kts 84°
2026-04-22 14:03 32.69038 -116.15394 27109 ft 442 kts 84°
2026-04-22 14:04 32.69361 -116.11772 27110 ft 441 kts 84°
2026-04-22 14:04 32.69680 -116.08153 27105 ft 441 kts 84°
2026-04-22 14:04 32.69999 -116.04531 27106 ft 441 kts 84°
2026-04-22 14:04 32.70320 -116.00909 27102 ft 441 kts 84°
2026-04-22 14:05 32.70650 -115.97291 27099 ft 442 kts 84°
2026-04-22 14:05 32.70990 -115.93664 27103 ft 441 kts 83°
2026-04-22 14:05 32.71669 -115.86473 27107 ft 442 kts 83°
2026-04-22 14:06 32.72006 -115.82844 27105 ft 442 kts 83°
2026-04-22 14:06 32.72336 -115.79214 27102 ft 442 kts 84°
2026-04-22 14:06 32.72661 -115.75586 27105 ft 442 kts 84°
2026-04-22 14:06 32.72986 -115.71953 27103 ft 442 kts 84°
2026-04-22 14:07 32.73313 -115.68326 27097 ft 442 kts 84°
2026-04-22 14:07 32.73641 -115.64693 27093 ft 442 kts 84°
2026-04-22 14:07 32.73966 -115.61114 27090 ft 442 kts 83°
2026-04-22 14:07 32.74295 -115.57481 27101 ft 442 kts 83°
2026-04-22 14:08 32.74620 -115.53847 27101 ft 443 kts 84°
2026-04-22 14:08 32.74931 -115.50213 27099 ft 443 kts 85°
2026-04-22 14:08 32.75139 -115.46564 27101 ft 444 kts 88°
2026-04-22 14:08 32.75240 -115.42886 27104 ft 446 kts 89°
2026-04-22 14:09 32.75282 -115.39210 27111 ft 445 kts 90°
2026-04-22 14:09 32.75310 -115.35532 27110 ft 445 kts 90°
2026-04-22 14:09 32.75348 -115.31856 27109 ft 445 kts 89°
2026-04-22 14:09 32.75406 -115.28229 27101 ft 445 kts 89°
2026-04-22 14:10 32.75483 -115.24555 27109 ft 445 kts 89°
2026-04-22 14:10 32.75572 -115.20885 27109 ft 445 kts 88°
2026-04-22 14:10 32.75664 -115.17209 27104 ft 445 kts 88°
2026-04-22 14:10 32.75754 -115.13539 27101 ft 444 kts 88°
2026-04-22 14:11 32.75840 -115.09874 27099 ft 444 kts 88°
2026-04-22 14:11 32.75919 -115.06205 27101 ft 444 kts 89°
2026-04-22 14:11 32.75995 -115.02537 27097 ft 444 kts 89°
2026-04-22 14:11 32.76070 -114.98923 27097 ft 444 kts 89°
2026-04-22 14:12 32.76146 -114.95258 27096 ft 444 kts 88°
2026-04-22 14:12 32.76222 -114.91591 27095 ft 444 kts 88°
2026-04-22 14:12 32.76294 -114.87927 27094 ft 444 kts 89°
2026-04-22 14:12 32.76365 -114.84259 27088 ft 444 kts 89°
2026-04-22 14:13 32.76437 -114.80588 27082 ft 444 kts 88°
2026-04-22 14:13 32.76505 -114.76915 27086 ft 445 kts 89°
2026-04-22 14:13 32.76573 -114.73248 27084 ft 444 kts 88°
2026-04-22 14:13 32.76642 -114.69624 27078 ft 445 kts 88°
2026-04-22 14:14 32.76712 -114.65951 27083 ft 445 kts 88°
2026-04-22 14:14 32.76776 -114.62277 27077 ft 445 kts 89°
2026-04-22 14:14 32.76838 -114.58606 27083 ft 445 kts 89°
2026-04-22 14:14 32.76894 -114.54932 27088 ft 445 kts 89°
2026-04-22 14:15 32.76946 -114.51258 27094 ft 444 kts 89°
2026-04-22 14:15 32.76994 -114.47592 27096 ft 444 kts 89°
2026-04-22 14:15 32.77041 -114.43922 27098 ft 444 kts 89°
2026-04-22 14:15 32.77088 -114.40260 27100 ft 444 kts 89°
2026-04-22 14:16 32.77136 -114.36646 27100 ft 443 kts 89°
2026-04-22 14:16 32.77184 -114.32986 27104 ft 443 kts 89°
2026-04-22 14:16 32.77229 -114.29333 27105 ft 443 kts 89°
2026-04-22 14:16 32.77274 -114.25673 27099 ft 443 kts 89°
2026-04-22 14:17 32.77319 -114.22023 27098 ft 442 kts 89°
2026-04-22 14:17 32.77363 -114.18369 27095 ft 442 kts 89°
2026-04-22 14:17 32.77402 -114.14721 27001 ft 440 kts 89°
2026-04-22 14:17 32.77438 -114.11111 26747 ft 434 kts 89°
2026-04-22 14:18 32.77480 -114.07550 26497 ft 429 kts 87°
2026-04-22 14:18 32.77790 -114.04094 26252 ft 425 kts 81°
2026-04-22 14:18 32.78179 -114.00619 26003 ft 423 kts 81°
2026-04-22 14:18 32.78567 -113.97159 25752 ft 422 kts 81°
2026-04-22 14:19 32.78951 -113.93713 25502 ft 420 kts 81°
2026-04-22 14:19 32.79329 -113.90279 25251 ft 418 kts 82°
2026-04-22 14:19 32.79699 -113.86865 25053 ft 416 kts 82°
2026-04-22 14:19 32.80066 -113.83460 25072 ft 416 kts 82°
2026-04-22 14:20 32.80804 -113.76642 25072 ft 416 kts 82°
2026-04-22 14:20 32.81183 -113.73280 25072 ft 416 kts 78°
2026-04-22 14:20 32.81950 -113.69987 25073 ft 413 kts 65°
2026-04-22 14:21 32.85003 -113.64342 25074 ft 404 kts 43°
2026-04-22 14:21 32.86872 -113.61844 25073 ft 405 kts 44°
2026-04-22 14:22 32.90599 -113.56829 24665 ft 403 kts 44°
2026-04-22 14:22 32.92453 -113.54332 24416 ft 401 kts 44°
2026-04-22 14:22 32.96114 -113.49392 23915 ft 399 kts 44°
2026-04-22 14:23 32.97947 -113.46912 23668 ft 398 kts 44°
2026-04-22 14:23 32.99762 -113.44456 23383 ft 393 kts 44°
2026-04-22 14:23 33.01563 -113.42017 22969 ft 391 kts 44°
2026-04-22 14:23 33.03354 -113.39590 22551 ft 390 kts 45°
2026-04-22 14:24 33.05141 -113.37168 22141 ft 388 kts 45°
2026-04-22 14:24 33.06917 -113.34765 21849 ft 385 kts 45°
2026-04-22 14:24 33.08692 -113.32371 21627 ft 386 kts 45°
2026-04-22 14:24 33.10446 -113.30005 21387 ft 385 kts 45°
2026-04-22 14:25 33.12214 -113.27615 21140 ft 384 kts 45°
2026-04-22 14:25 33.13979 -113.25227 20902 ft 383 kts 45°
2026-04-22 14:25 33.15739 -113.22846 20666 ft 381 kts 45°
2026-04-22 14:25 33.17490 -113.20477 20421 ft 380 kts 45°
2026-04-22 14:26 33.19239 -113.18110 20189 ft 380 kts 45°
2026-04-22 14:26 33.20977 -113.15753 19946 ft 377 kts 45°
2026-04-22 14:26 33.22708 -113.13402 19708 ft 376 kts 46°
2026-04-22 14:26 33.24430 -113.11053 19471 ft 376 kts 47°
2026-04-22 14:27 33.25891 -113.08516 19237 ft 376 kts 60°
2026-04-22 14:27 33.26929 -113.05657 18997 ft 375 kts 73°
2026-04-22 14:27 33.27486 -113.02629 18708 ft 372 kts 85°
2026-04-22 14:27 33.27617 -112.99551 18444 ft 370 kts 91°
2026-04-22 14:28 33.27687 -112.96481 18171 ft 369 kts 90°
2026-04-22 14:28 33.27763 -112.93426 17895 ft 367 kts 90°
2026-04-22 14:28 33.27841 -112.90389 17597 ft 364 kts 90°
2026-04-22 14:28 33.27915 -112.87371 17330 ft 363 kts 90°
2026-04-22 14:29 33.27990 -112.84366 17153 ft 361 kts 90°
2026-04-22 14:29 33.28081 -112.81407 16993 ft 361 kts 89°
2026-04-22 14:29 33.28279 -112.78411 16598 ft 361 kts 86°
2026-04-22 14:29 33.28559 -112.75440 16250 ft 358 kts 85°
2026-04-22 14:30 33.28873 -112.72499 15908 ft 356 kts 84°
2026-04-22 14:30 33.29191 -112.69579 15562 ft 353 kts 84°
2026-04-22 14:30 33.29498 -112.66683 15219 ft 350 kts 85°
2026-04-22 14:30 33.29787 -112.63806 14873 ft 348 kts 85°
2026-04-22 14:31 33.30059 -112.60945 14540 ft 345 kts 86°
2026-04-22 14:31 33.30321 -112.58100 14205 ft 343 kts 86°
2026-04-22 14:31 33.30575 -112.55308 13875 ft 341 kts 86°
2026-04-22 14:31 33.30832 -112.52495 13542 ft 339 kts 86°
2026-04-22 14:32 33.31085 -112.49702 13212 ft 337 kts 86°
2026-04-22 14:32 33.31339 -112.46921 12879 ft 336 kts 86°
2026-04-22 14:32 33.31594 -112.44156 12551 ft 333 kts 86°
2026-04-22 14:32 33.31846 -112.41412 12225 ft 330 kts 86°
2026-04-22 14:33 33.32012 -112.39608 12014 ft 329 kts 86°
2026-04-22 14:33 33.32341 -112.35990 11585 ft 326 kts 86°
2026-04-22 14:33 33.32582 -112.33346 11284 ft 323 kts 86°
2026-04-22 14:33 33.32823 -112.30683 10967 ft 321 kts 87°
2026-04-22 14:34 33.33063 -112.28040 10641 ft 318 kts 86°
2026-04-22 14:34 33.33303 -112.25426 10337 ft 315 kts 86°
2026-04-22 14:34 33.33539 -112.22835 10031 ft 312 kts 86°
2026-04-22 14:34 33.33772 -112.20268 9728 ft 309 kts 86°
2026-04-22 14:35 33.34002 -112.17726 9457 ft 305 kts 86°
2026-04-22 14:35 33.34226 -112.15248 9350 ft 295 kts 86°
2026-04-22 14:35 33.34439 -112.12881 9228 ft 286 kts 86°
2026-04-22 14:35 33.34648 -112.10553 9100 ft 277 kts 85°
2026-04-22 14:36 33.34753 -112.08288 8933 ft 270 kts 93°
2026-04-22 14:36 33.34722 -112.06035 8618 ft 271 kts 93°
2026-04-22 14:36 33.34692 -112.03788 8333 ft 269 kts 93°
2026-04-22 14:36 33.34663 -112.01595 8056 ft 269 kts 92°
2026-04-22 14:37 33.34633 -111.99360 7764 ft 268 kts 92°
2026-04-22 14:37 33.34612 -111.97884 7577 ft 268 kts 92°
2026-04-22 14:37 33.34573 -111.94954 7206 ft 266 kts 92°